Contact Us:
Email: info@sawbill.com
Phone: (218)663-7150
Fax: (218)663-7980
Mail: 4620 Sawbill Trail
Box 2129
Tofte, MN 55615


Powered by
Movable Type 3.15
 
Sawbill Weather History Archives: July 2017
Current Sawbill Weather History | « June 2017 | August 2017 »


Date

High
Temperature

Low
Temperature

Barometric
Pressure

Relative
Humidity 7AM

9 AM
Temperature

Moisture

Snow

7/31/17 83 64 30.06 63% 63 .09"
7/30/17 84 62 30.14 83% 64 0"
7/29/17 81 53 30.14 77% 53 0"
7/28/17 78 51 30.14 71% 53 0"
7/27/17 74 51 30.12 74% 51 0"
7/25/17 76 58 30.08 72% 58 0"
7/24/17 73 50 30.04 71% 62 .04"
7/23/17 74 49 30.10 74% 50 0"
7/23/17 71 48 30.10 84% 57 0"
7/22/17 75 55 30.00 84% 58 .03"
7/21/17 76 55 30.00 72% 55 Trace
7/20/17 76 57 30.04 78% 58 0"
7/19/17 72 53 30.02 86% 57 0"
7/17/17 75 46 30.02 30% 55 0"
7/16/17 68 45 30.08 75% 46 0"
7/15/17 75 50 30.14 72% 51 .70"
7/14/17 74 51 30.04 88% 59 0"
7/13/17 57 50 30.12 94% 51 .23"
7/12/17 59 50 30.08 98% 50 .92"
7/11/17 73 56 29.98 92% 56 0"
7/10/17 76 54 30.00 80% 57 0"
7/9/17 74 54 30.00 76% 55 0"
7/8/17 75 53 30.02 88% 57 .07"
7/7/17 69 52 30.02 91% 58 0"
7/6/17 80 59 30.02 73% 59 .36"
7/5/17 80 60 30.02 82% 61 0"
7/4/17 76 52 30.08 97% 60 .34"
7/3/17 72 51 30.14 76% 52 0"
7/2/17 67 50 30.10 78% 51 0"
7/1/17 68 53 30.04 83% 56 .10"
 


Home I Trip Planning I Rentals and Outfitting I Reservations I Campgrounds I Sawbill Store I Sawbill News I Contact

© 1997 - 2017, Sawbill Canoe Outfitters, Inc. I Privacy Policy